Burlington, CO

9:46 PM MST on November 24, 2017 (GMT -0700)
Kit Carson County

Weather History for KITR - November, 2013

Change the Weather History Date:

Sunday, November 10, 2013

  Actual Average Record
Temperature  
Mean Temperature 43 °F 41 °F  
Max Temperature 59 °F 55 °F 84 °F (1927)
Min Temperature 27 °F 26 °F -1 °F (1950)
Degree Days  
Heating Degree Days 22    
Moisture  
Dew Point 36 °F    
Average Humidity 82    
Maximum Humidity 100    
Minimum Humidity 49    
Precipitation  
Precipitation 0.00 in 0.02 in 0.56 in (2004)
Month to date precipitation 0.19 0.30  
Year to date precipitation 16.71 16.74  
Sea Level Pressure  
Sea Level Pressure 30.25 in    
Wind  
Wind Speed 11 mph (SSW)    
Max Wind Speed 22 mph    
Max Gust Speed 29 mph    
Visibility 8 miles    
Events Fog    
T = Trace of Precipitation, MM = Missing Value Source: NWS Daily Summary

Daily Weather History Graph

Daily Weather History Graph

Search for Another Location

Airport or City:

Trip Planner

Search our weather history database for the weather conditions in past years. The results will help you decide how hot, cold, wet, or windy it might be!

Date:

Astronomy

Nov. 10, 2013 Rise Set
Actual Time 6:27 AM MST 4:38 PM MST
Civil Twilight 5:58 AM MST 5:06 PM MST
Nautical Twilight 5:26 AM MST 5:38 PM MST
Astronomical Twilight 4:55 AM MST 6:10 PM MST
Moon 12:42 PM MST (11/10) No Moon Set
Length of Visible Light 11h 07m
Length of Day
10h 11m
First Quarter, 56% of the Moon is Illuminated
Nov 10
First Quarter
Nov 17
Full
Nov 25
Last Quarter
Dec 2
New
Dec 9
First Quarter

Hourly Weather History & Observations

Time (MST) Temp. Windchill Dew Point Humidity Pressure Visibility Wind Dir Wind Speed Gust Speed Precip Events Conditions
12:53 AM 34.0 °F 28.0 °F 30.0 °F 85% 30.25 in 10.0 mi South 6.9 mph - N/A   Clear
1:53 AM 30.9 °F 23.5 °F 27.0 °F 85% 30.25 in 10.0 mi South 8.1 mph - N/A   Clear
2:53 AM 28.9 °F 21.9 °F 27.0 °F 92% 30.26 in 10.0 mi SSW 6.9 mph - N/A   Clear
3:53 AM 32.0 °F 28.7 °F 30.0 °F 92% 30.27 in 10.0 mi SSW 3.5 mph - N/A   Clear
4:53 AM 28.0 °F 21.7 °F 25.0 °F 88% 30.31 in 10.0 mi South 5.8 mph - N/A   Clear
5:53 AM 32.0 °F 23.0 °F 30.0 °F 92% 30.30 in 4.0 mi South 11.5 mph - N/A   Partly Cloudy
6:02 AM 32.0 °F 22.5 °F 32.0 °F 100% 30.28 in 1.8 mi South 12.7 mph - N/A   Scattered Clouds
6:06 AM 32.0 °F 23.0 °F 30.2 °F 93% 30.28 in 0.8 mi South 11.5 mph - N/A   Mist
6:53 AM 33.1 °F 25.5 °F 33.1 °F 100% 30.31 in 0.2 mi South 9.2 mph - N/A Fog Fog
7:27 AM 35.6 °F 29.9 °F 35.6 °F 100% 30.29 in 1.0 mi South 6.9 mph - N/A   Overcast
7:37 AM 37.4 °F 30.8 °F 35.6 °F 93% 30.29 in 3.0 mi South 9.2 mph - N/A   Overcast
7:50 AM 37.4 °F 30.8 °F 37.4 °F 100% 30.30 in 2.0 mi South 9.2 mph - N/A   Overcast
7:53 AM 37.9 °F 30.9 °F 37.0 °F 97% 30.32 in 0.8 mi South 10.4 mph - N/A   Overcast
8:39 AM 41.0 °F 33.9 °F 39.2 °F 93% 30.30 in 1.8 mi South 12.7 mph - N/A   Overcast
8:50 AM 41.0 °F 34.3 °F 39.2 °F 93% 30.30 in 3.0 mi South 11.5 mph - N/A   Overcast
8:53 AM 41.0 °F 33.9 °F 39.9 °F 96% 30.32 in 3.0 mi South 12.7 mph - N/A   Overcast
9:27 AM 44.6 °F 37.2 °F 42.8 °F 93% 30.29 in 10.0 mi South 17.3 mph - N/A   Overcast
9:53 AM 46.0 °F 39.3 °F 43.0 °F 89% 30.30 in 10.0 mi SSW 16.1 mph - N/A   Overcast
10:02 AM 46.4 °F 39.5 °F 42.8 °F 87% 30.28 in 10.0 mi South 17.3 mph - N/A   Overcast
10:20 AM 50.0 °F - 42.8 °F 76% 30.27 in 10.0 mi South 20.7 mph - N/A   Scattered Clouds
10:53 AM 51.1 °F - 42.1 °F 71% 30.26 in 10.0 mi SSW 20.7 mph 28.8 mph N/A   Scattered Clouds
11:04 AM 51.8 °F - 42.8 °F 71% 30.26 in 10.0 mi South 21.9 mph - N/A   Mostly Cloudy
11:43 AM 53.6 °F - 42.8 °F 67% 30.24 in 10.0 mi South 17.3 mph - N/A   Mostly Cloudy
11:53 AM 54.0 °F - 42.1 °F 64% 30.22 in 10.0 mi SSW 21.9 mph - N/A   Mostly Cloudy
12:03 PM 53.6 °F - 42.8 °F 67% 30.23 in 10.0 mi South 17.3 mph 25.3 mph N/A   Scattered Clouds
12:53 PM 55.0 °F - 42.1 °F 62% 30.19 in 10.0 mi South 20.7 mph 26.5 mph N/A   Clear
1:53 PM 57.9 °F - 39.9 °F 51% 30.17 in 10.0 mi SSW 16.1 mph - N/A   Clear
2:53 PM 57.9 °F - 39.0 °F 49% 30.18 in 10.0 mi SSW 17.3 mph - N/A   Clear
3:53 PM 55.9 °F - 39.0 °F 53% 30.17 in 10.0 mi SW 10.4 mph - N/A   Clear
4:53 PM 46.0 °F 41.9 °F 36.0 °F 68% 30.21 in 10.0 mi SW 8.1 mph - N/A   Clear
5:53 PM 41.0 °F 35.2 °F 34.0 °F 76% 30.21 in 10.0 mi SW 9.2 mph - N/A   Clear
6:53 PM 39.0 °F 34.8 °F 33.1 °F 79% 30.22 in 10.0 mi SSW 5.8 mph - N/A   Clear
7:53 PM 37.9 °F 31.5 °F 34.0 °F 86% 30.22 in 10.0 mi SW 9.2 mph - N/A   Clear
8:53 PM 43.0 °F 37.2 °F 39.0 °F 86% 30.19 in 10.0 mi SW 10.4 mph - N/A   Clear
9:53 PM 37.9 °F 31.5 °F 35.1 °F 89% 30.19 in 10.0 mi WSW 9.2 mph - N/A   Clear
10:53 PM 36.0 °F 28.0 °F 32.0 °F 86% 30.17 in 10.0 mi West 11.5 mph - N/A   Clear
11:53 PM 37.0 °F 29.3 °F 32.0 °F 82% 30.15 in 10.0 mi West 11.5 mph - N/A   Clear